New Paris, IN

4:00 AM EDT on August 25, 2016 (GMT -0400)
Goshen Municipal

Weather History for KGSH - November, 2012

Change the Weather History Date:

Sunday, November 4, 2012

  Actual Average Record
Temperature  
Mean Temperature 34 °F -  
Max Temperature 44 °F 52 °F 75 °F (2003)
Min Temperature 26 °F 37 °F 15 °F (1951)
Degree Days  
Heating Degree Days 30    
Moisture  
Dew Point 27 °F    
Average Humidity 74    
Maximum Humidity 93    
Minimum Humidity 56    
Precipitation  
Precipitation 0.00 in - - ()
Sea Level Pressure  
Sea Level Pressure 30.20 in    
Wind  
Wind Speed 3 mph (North)    
Max Wind Speed 12 mph    
Max Gust Speed -    
Visibility 10 miles    
Events      
Averages and records for this station are not official NWS values.
T = Trace of Precipitation, MM = Missing Value Source: NWS Daily Summary

Daily Weather History Graph

Daily Weather History Graph

Search for Another Location

Airport or City:

Trip Planner

Search our weather history database for the weather conditions in past years. The results will help you decide how hot, cold, wet, or windy it might be!

Date:

Astronomy

Nov. 04, 2012 Rise Set
Actual Time 7:19 AM EST 5:33 PM EST
Civil Twilight 6:50 AM EST 6:02 PM EST
Nautical Twilight 6:17 AM EST 6:35 PM EST
Astronomical Twilight 5:44 AM EST 7:08 PM EST
Moon 10:10 PM EST (11/4) 12:03 PM EST (11/4)
Length of Visible Light 11h 12m
Length of Day
10h 14m
Waning Gibbous, 72% of the Moon is Illuminated
Nov 4
Waning Gibbous
Nov 6
Last Quarter
Nov 13
New
Nov 20
First Quarter
Nov 28
Full

Hourly Weather History & Observations

Time (EST) Temp. Windchill Dew Point Humidity Pressure Visibility Wind Dir Wind Speed Gust Speed Precip Events Conditions
12:53 AM 30.0 °F - 26.1 °F 85% 30.20 in 10.0 mi Calm Calm - N/A   Mostly Cloudy
1:53 AM 30.9 °F - 27.0 °F 85% 30.20 in 10.0 mi Calm Calm - N/A   Overcast
2:53 AM 28.0 °F - 25.0 °F 88% 30.20 in 8.0 mi Calm Calm - N/A   Clear
3:45 AM 26.6 °F - 24.8 °F 93% 30.18 in 8.0 mi Calm Calm - N/A   Mostly Cloudy
3:53 AM 27.0 °F - 24.1 °F 89% 30.20 in 9.0 mi Calm Calm - N/A   Mostly Cloudy
4:53 AM 28.9 °F - 27.0 °F 92% 30.21 in 9.0 mi Calm Calm - N/A   Overcast
5:53 AM 32.0 °F 27.5 °F 28.0 °F 85% 30.22 in 10.0 mi NNW 4.6 mph - N/A   Overcast
6:53 AM 33.1 °F 30.0 °F 28.9 °F 85% 30.22 in 10.0 mi ENE 3.5 mph - N/A   Overcast
7:12 AM 33.8 °F 29.6 °F 28.4 °F 81% 30.19 in 10.0 mi East 4.6 mph - N/A   Overcast
7:53 AM 35.1 °F 31.0 °F 28.0 °F 76% 30.22 in 10.0 mi ENE 4.6 mph - N/A   Overcast
8:53 AM 36.0 °F - 27.0 °F 70% 30.24 in 10.0 mi Calm Calm - N/A   Overcast
9:53 AM 37.0 °F - 28.9 °F 73% 30.23 in 10.0 mi Calm Calm - N/A   Overcast
10:53 AM 39.0 °F 35.7 °F 28.0 °F 65% 30.23 in 10.0 mi NNE 4.6 mph - N/A   Overcast
11:53 AM 39.9 °F 34.5 °F 28.0 °F 63% 30.22 in 10.0 mi North 8.1 mph - N/A   Mostly Cloudy
12:53 PM 41.0 °F 36.4 °F 28.0 °F 60% 30.20 in 10.0 mi NNW 6.9 mph - N/A   Overcast
1:53 PM 43.0 °F 36.8 °F 28.9 °F 58% 30.19 in 10.0 mi NNW 11.5 mph - N/A   Mostly Cloudy
2:53 PM 43.0 °F 37.7 °F 28.0 °F 56% 30.18 in 10.0 mi NW 9.2 mph - N/A   Overcast
3:53 PM 42.1 °F 36.6 °F 28.0 °F 58% 30.18 in 10.0 mi North 9.2 mph - N/A   Mostly Cloudy
4:53 PM 43.0 °F 38.8 °F 28.0 °F 56% 30.17 in 10.0 mi North 6.9 mph - N/A   Overcast
5:53 PM 39.0 °F - 27.0 °F 62% 30.18 in 10.0 mi Calm Calm - N/A   Overcast
6:53 PM 37.9 °F 32.7 °F 28.0 °F 68% 30.20 in 10.0 mi NNW 6.9 mph - N/A   Overcast
7:53 PM 36.0 °F 32.1 °F 28.0 °F 73% 30.20 in 10.0 mi NNW 4.6 mph - N/A   Overcast
8:53 PM 33.1 °F 30.0 °F 27.0 °F 78% 30.20 in 10.0 mi North 3.5 mph - N/A   Partly Cloudy
9:53 PM 30.0 °F 24.1 °F 24.1 °F 79% 30.21 in 10.0 mi ENE 5.8 mph - N/A   Clear
10:53 PM 28.9 °F 23.9 °F 23.0 °F 78% 30.20 in 10.0 mi East 4.6 mph - N/A   Clear